When you browse on this site, cookies collect data to enhance your experience and personalize the content and advertising you see.
Visit our Privacy Policy to learn more. By continuing to use the site, you agree to this use of cookies and data.
  • în România
  • Lista ţărilor
  • Pe 7 zile
  • Temperatura apei
  • Hartă satelitară
  • Meteo pe hartă
  • Widget-uri
  • user-avatar
    Intrare

    Meteo pe oră la Asciano

    Astăzi, 22 Aprilie, Luni

    Timp Temperatura Precipitaţii Vânt Presiune Umiditate
    00:00 +14°C° 0 mm 1 m/s 740 mmHg 68%
    01:00 +13°C° 0 mm 1 m/s 740 mmHg 68%
    02:00 +13°C° 0 mm 1 m/s 739 mmHg 67%
    03:00 +13°C° 0 mm 2 m/s 739 mmHg 66%
    04:00 +13°C° 0 mm 2 m/s 738 mmHg 64%
    05:00 +13°C° 0 mm 2 m/s 738 mmHg 66%
    06:00 +13°C° 0 mm 2 m/s 737 mmHg 68%
    07:00 +13°C° 0 mm 2 m/s 737 mmHg 71%
    08:00 +15°C° 0 mm 2 m/s 737 mmHg 66%
    09:00 +17°C° 0 mm 3 m/s 737 mmHg 61%
    10:00 +19°C° 0 mm 3 m/s 736 mmHg 56%
    11:00 +21°C° 0 mm 3 m/s 736 mmHg 54%
    12:00 +22°C° 0 mm 3 m/s 736 mmHg 52%
    13:00 +24°C° 0 mm 3 m/s 735 mmHg 50%
    14:00 +21°C° 0.5 mm 3 m/s 735 mmHg 60%
    15:00 +20°C° 0.5 mm 2 m/s 735 mmHg 70%
    16:00 +18°C° 0.5 mm 2 m/s 734 mmHg 81%
    17:00 +18°C° 3.5 mm 1 m/s 734 mmHg 86%
    18:00 +16°C° 3.5 mm 1 m/s 733 mmHg 90%
    19:00 +15°C° 3.5 mm 1 m/s 732 mmHg 95%
    20:00 +15°C° 1.5 mm 1 m/s 732 mmHg 95%
    21:00 +15°C° 1.5 mm 1 m/s 732 mmHg 95%
    22:00 +14°C° 1.5 mm 1 m/s 732 mmHg 95%
    23:00 +14°C° 0.1 mm 1 m/s 732 mmHg 95%

    Mâine, 23 Aprilie, Marţi

    Timp Temperatura Precipitaţii Vânt Presiune Umiditate
    00:00 +14°C° 0.1 mm 1 m/s 731 mmHg 95%
    01:00 +14°C° 0.1 mm 1 m/s 731 mmHg 95%
    02:00 +13°C° 0 mm 1 m/s 730 mmHg 95%
    03:00 +13°C° 0 mm 1 m/s 730 mmHg 95%
    04:00 +13°C° 0 mm 1 m/s 730 mmHg 94%
    05:00 +13°C° 0.3 mm 1 m/s 730 mmHg 94%
    06:00 +14°C° 0.3 mm 2 m/s 730 mmHg 93%
    07:00 +14°C° 0.3 mm 2 m/s 730 mmHg 93%
    08:00 +14°C° 0.1 mm 2 m/s 730 mmHg 92%
    09:00 +14°C° 0.1 mm 2 m/s 731 mmHg 92%
    10:00 +14°C° 0.1 mm 3 m/s 731 mmHg 91%
    11:00 +15°C° 0.7 mm 4 m/s 731 mmHg 88%
    12:00 +16°C° 0.7 mm 5 m/s 731 mmHg 84%
    13:00 +17°C° 0.7 mm 6 m/s 731 mmHg 81%
    14:00 +17°C° 1.2 mm 5 m/s 732 mmHg 82%
    15:00 +17°C° 1.2 mm 5 m/s 732 mmHg 83%
    16:00 +16°C° 1.2 mm 5 m/s 732 mmHg 84%
    17:00 +17°C° 0.5 mm 4 m/s 732 mmHg 86%
    18:00 +15°C° 0.5 mm 4 m/s 733 mmHg 89%
    19:00 +14°C° 0.5 mm 3 m/s 733 mmHg 91%
    20:00 +13°C° 0.1 mm 3 m/s 734 mmHg 92%
    21:00 +13°C° 0.1 mm 3 m/s 735 mmHg 94%
    22:00 +12°C° 0.1 mm 3 m/s 736 mmHg 95%
    23:00 +12°C° 0.1 mm 3 m/s 736 mmHg 95%

    Poimâine, 24 Aprilie, Miercuri

    Timp Temperatura Precipitaţii Vânt Presiune Umiditate
    00:00 +13°C° 0.1 mm 2 m/s 737 mmHg 95%
    01:00 +13°C° 0.1 mm 2 m/s 737 mmHg 95%
    02:00 +13°C° 0.1 mm 2 m/s 738 mmHg 95%
    03:00 +13°C° 0.1 mm 2 m/s 738 mmHg 96%
    04:00 +13°C° 0.1 mm 2 m/s 738 mmHg 96%
    05:00 +14°C° 0 mm 2 m/s 739 mmHg 94%
    06:00 +14°C° 0 mm 2 m/s 739 mmHg 93%
    07:00 +15°C° 0 mm 2 m/s 739 mmHg 91%
    08:00 +16°C° 0 mm 2 m/s 740 mmHg 84%
    09:00 +18°C° 0 mm 2 m/s 740 mmHg 77%
    10:00 +20°C° 0 mm 2 m/s 741 mmHg 69%
    11:00 +21°C° 0 mm 2 m/s 741 mmHg 64%
    12:00 +23°C° 0 mm 2 m/s 741 mmHg 58%
    13:00 +24°C° 0 mm 2 m/s 741 mmHg 52%
    14:00 +25°C° 0 mm 2 m/s 740 mmHg 52%
    15:00 +25°C° 0 mm 2 m/s 740 mmHg 51%
    16:00 +25°C° 0 mm 2 m/s 740 mmHg 51%
    17:00 +23°C° 0 mm 2 m/s 740 mmHg 57%
    18:00 +21°C° 0 mm 1 m/s 739 mmHg 64%
    19:00 +19°C° 0 mm 1 m/s 739 mmHg 70%
    20:00 +19°C° 0 mm 1 m/s 740 mmHg 72%
    21:00 +18°C° 0 mm 1 m/s 740 mmHg 74%
    22:00 +16°C° 0 mm 1 m/s 740 mmHg 76%
    23:00 +16°C° 0 mm 1 m/s 740 mmHg 76%

    25 Aprilie, Joi

    Timp Temperatura Precipitaţii Vânt Presiune Umiditate
    00:00 +14°C° 0 mm 0 m/s 740 mmHg 77%
    01:00 +14°C° 0 mm 0 m/s 740 mmHg 77%
    02:00 +14°C° 0 mm 0 m/s 740 mmHg 78%
    03:00 +15°C° 0 mm 1 m/s 740 mmHg 78%
    04:00 +14°C° 0 mm 1 m/s 740 mmHg 79%
    05:00 +15°C° 0 mm 1 m/s 740 mmHg 79%
    06:00 +15°C° 0 mm 1 m/s 740 mmHg 80%
    07:00 +16°C° 0 mm 1 m/s 741 mmHg 80%
    08:00 +19°C° 0.1 mm 1 m/s 741 mmHg 74%
    09:00 +21°C° 0.1 mm 1 m/s 742 mmHg 69%
    10:00 +23°C° 0.1 mm 1 m/s 742 mmHg 63%
    11:00 +24°C° 0 mm 1 m/s 742 mmHg 60%
    12:00 +25°C° 0 mm 1 m/s 742 mmHg 57%
    13:00 +26°C° 0 mm 1 m/s 742 mmHg 54%
    14:00 +25°C° 0.1 mm 2 m/s 742 mmHg 58%
    15:00 +25°C° 0.1 mm 2 m/s 741 mmHg 61%
    16:00 +24°C° 0.1 mm 3 m/s 741 mmHg 65%
    17:00 +21°C° 0.2 mm 2 m/s 741 mmHg 71%
    18:00 +20°C° 0.2 mm 2 m/s 741 mmHg 77%
    19:00 +18°C° 0.2 mm 2 m/s 741 mmHg 83%
    20:00 +16°C° 0 mm 1 m/s 742 mmHg 84%
    21:00 +15°C° 0 mm 1 m/s 742 mmHg 84%
    22:00 +14°C° 0 mm 1 m/s 742 mmHg 85%
    23:00 +14°C° 0 mm 1 m/s 742 mmHg 84%

    26 Aprilie, Vineri

    Timp Temperatura Precipitaţii Vânt Presiune Umiditate
    00:00 +13°C° 0 mm 1 m/s 742 mmHg 83%
    01:00 +12°C° 0 mm 1 m/s 742 mmHg 82%
    02:00 +12°C° 0 mm 1 m/s 742 mmHg 83%
    03:00 +11°C° 0 mm 1 m/s 742 mmHg 84%
    04:00 +9°C° 0 mm 0 m/s 742 mmHg 85%
    05:00 +10°C° 0 mm 0 m/s 742 mmHg 81%
    06:00 +11°C° 0 mm 0 m/s 742 mmHg 78%
    07:00 +12°C° 0 mm 0 m/s 742 mmHg 74%
    08:00 +15°C° 0 mm 1 m/s 742 mmHg 66%
    09:00 +18°C° 0 mm 1 m/s 742 mmHg 58%
    10:00 +19°C° 0 mm 2 m/s 742 mmHg 51%
    11:00 +19°C° 0 mm 3 m/s 742 mmHg 51%
    12:00 +20°C° 0 mm 4 m/s 742 mmHg 51%
    13:00 +21°C° 0 mm 5 m/s 742 mmHg 51%
    14:00 +20°C° 0 mm 6 m/s 742 mmHg 50%
    15:00 +19°C° 0 mm 6 m/s 741 mmHg 50%
    16:00 +18°C° 0 mm 7 m/s 741 mmHg 50%
    17:00 +16°C° 0 mm 6 m/s 741 mmHg 54%
    18:00 +14°C° 0 mm 4 m/s 741 mmHg 57%
    19:00 +12°C° 0 mm 3 m/s 741 mmHg 61%
    20:00 +11°C° 0 mm 3 m/s 741 mmHg 64%
    21:00 +11°C° 0 mm 3 m/s 741 mmHg 67%
    22:00 +10°C° 0 mm 3 m/s 741 mmHg 69%
    23:00 +10°C° 0.1 mm 3 m/s 742 mmHg 74%

    27 Aprilie, Sâmbătă

    Timp Temperatura Precipitaţii Vânt Presiune Umiditate
    00:00 +10°C° 0.1 mm 3 m/s 742 mmHg 79%
    01:00 +10°C° 0.1 mm 3 m/s 742 mmHg 83%
    02:00 +9°C° 0 mm 2 m/s 742 mmHg 86%
    03:00 +9°C° 0 mm 2 m/s 742 mmHg 90%
    04:00 +9°C° 0 mm 1 m/s 742 mmHg 93%
    05:00 +10°C° 0 mm 1 m/s 743 mmHg 88%
    06:00 +11°C° 0 mm 1 m/s 743 mmHg 83%
    07:00 +12°C° 0 mm 1 m/s 744 mmHg 78%
    08:00 +14°C° 0 mm 2 m/s 744 mmHg 69%
    09:00 +16°C° 0 mm 3 m/s 745 mmHg 60%
    10:00 +17°C° 0 mm 3 m/s 745 mmHg 50%
    11:00 +18°C° 0 mm 3 m/s 745 mmHg 47%
    12:00 +19°C° 0 mm 3 m/s 745 mmHg 45%
    13:00 +20°C° 0 mm 3 m/s 745 mmHg 42%
    14:00 +21°C° 0 mm 3 m/s 745 mmHg 41%
    15:00 +21°C° 0 mm 2 m/s 745 mmHg 40%
    16:00 +21°C° 0 mm 2 m/s 745 mmHg 39%
    17:00 +20°C° 0 mm 1 m/s 745 mmHg 48%
    18:00 +18°C° 0 mm 1 m/s 745 mmHg 56%
    19:00 +15°C° 0 mm 1 m/s 745 mmHg 64%
    20:00 +13°C° 0 mm 0 m/s 746 mmHg 67%
    21:00 +12°C° 0 mm 0 m/s 746 mmHg 69%
    22:00 +10°C° 0 mm 0 m/s 747 mmHg 72%
    23:00 +10°C° 0 mm 0 m/s 747 mmHg 72%
    Arată mai mult